Year,Month,Day,Hour,Minute,Value (Times are PST for temperature in C)
2016,07,25,00,00,18.20
2016,07,25,00,01,18.20
2016,07,25,00,02,18.20
2016,07,25,00,03,18.20
2016,07,25,00,04,18.20
2016,07,25,00,05,18.20
2016,07,25,00,06,18.20
2016,07,25,00,07,18.20
2016,07,25,00,08,18.20
2016,07,25,00,09,18.10
2016,07,25,00,10,18.10
2016,07,25,00,11,18.10
2016,07,25,00,12,18.10
2016,07,25,00,13,18.10
2016,07,25,00,14,18.00
2016,07,25,00,15,17.90
2016,07,25,00,16,17.90
2016,07,25,00,17,17.90
2016,07,25,00,18,17.90
2016,07,25,00,19,17.90
2016,07,25,00,20,17.90
2016,07,25,00,21,17.90
2016,07,25,00,22,17.90
2016,07,25,00,23,17.90
2016,07,25,00,24,17.80
2016,07,25,00,25,17.80
2016,07,25,00,26,17.80
2016,07,25,00,27,17.80
2016,07,25,00,28,17.80
2016,07,25,00,29,17.80
2016,07,25,00,30,17.80
2016,07,25,00,31,17.80
2016,07,25,00,32,17.80
2016,07,25,00,33,17.80
2016,07,25,00,34,17.70
2016,07,25,00,35,17.70
2016,07,25,00,36,17.70
2016,07,25,00,37,17.70
2016,07,25,00,38,17.70
2016,07,25,00,39,17.60
2016,07,25,00,40,17.60
2016,07,25,00,41,17.60
2016,07,25,00,42,17.60
2016,07,25,00,43,17.60
2016,07,25,00,44,17.50
2016,07,25,00,45,17.50
2016,07,25,00,46,17.50
2016,07,25,00,47,17.50
2016,07,25,00,48,17.40
2016,07,25,00,49,17.40
2016,07,25,00,50,17.40
2016,07,25,00,51,17.40
2016,07,25,00,52,17.40
2016,07,25,00,53,17.40
2016,07,25,00,54,17.40
2016,07,25,00,55,17.40
2016,07,25,00,56,17.40
2016,07,25,00,57,17.40
2016,07,25,00,58,17.40
2016,07,25,00,59,17.30
2016,07,25,01,00,17.30
2016,07,25,01,01,17.30
2016,07,25,01,02,17.30
2016,07,25,01,03,17.30
2016,07,25,01,04,17.30
2016,07,25,01,05,17.30
2016,07,25,01,06,17.30
2016,07,25,01,07,17.30
2016,07,25,01,08,17.30
2016,07,25,01,09,17.30
2016,07,25,01,10,17.30
2016,07,25,01,11,17.30
2016,07,25,01,12,17.30
2016,07,25,01,13,17.30
2016,07,25,01,14,17.20
2016,07,25,01,15,17.20
2016,07,25,01,16,17.20
2016,07,25,01,17,17.20
2016,07,25,01,18,17.20
2016,07,25,01,19,17.10
2016,07,25,01,20,17.10
2016,07,25,01,21,17.10
2016,07,25,01,22,17.10
2016,07,25,01,23,17.10
2016,07,25,01,24,17.10
2016,07,25,01,25,17.00
2016,07,25,01,26,17.00
2016,07,25,01,27,17.00
2016,07,25,01,28,17.00
2016,07,25,01,29,17.00
2016,07,25,01,30,16.90
2016,07,25,01,31,16.90
2016,07,25,01,32,16.90
2016,07,25,01,33,16.90
2016,07,25,01,34,16.90
2016,07,25,01,35,16.80
2016,07,25,01,36,16.80
2016,07,25,01,37,16.80
2016,07,25,01,38,16.80
2016,07,25,01,39,16.70
2016,07,25,01,40,16.70
2016,07,25,01,41,16.70
2016,07,25,01,42,16.70
2016,07,25,01,43,16.70
2016,07,25,01,44,16.70
2016,07,25,01,45,16.70
2016,07,25,01,46,16.70
2016,07,25,01,47,16.70
2016,07,25,01,48,16.70
2016,07,25,01,49,16.70
2016,07,25,01,50,16.70
2016,07,25,01,51,16.70
2016,07,25,01,52,16.70
2016,07,25,01,53,16.70
2016,07,25,01,54,16.70
2016,07,25,01,55,16.70
2016,07,25,01,56,16.70
2016,07,25,01,57,16.70
2016,07,25,01,58,16.70
2016,07,25,01,59,16.70
2016,07,25,02,00,16.70
2016,07,25,02,01,16.70
2016,07,25,02,02,16.70
2016,07,25,02,03,16.70
2016,07,25,02,04,16.70
2016,07,25,02,05,16.70
2016,07,25,02,06,16.70
2016,07,25,02,07,16.70
2016,07,25,02,08,16.60
2016,07,25,02,09,16.60
2016,07,25,02,10,16.60
2016,07,25,02,11,16.60
2016,07,25,02,12,16.60
2016,07,25,02,13,16.60
2016,07,25,02,14,16.60
2016,07,25,02,15,16.60
2016,07,25,02,16,16.50
2016,07,25,02,17,16.40
2016,07,25,02,18,16.40
2016,07,25,02,19,16.40
2016,07,25,02,20,16.40
2016,07,25,02,21,16.40
2016,07,25,02,22,16.40
2016,07,25,02,23,16.40
2016,07,25,02,24,16.40
2016,07,25,02,25,16.30
2016,07,25,02,26,16.30
2016,07,25,02,27,16.30
2016,07,25,02,28,16.30
2016,07,25,02,29,16.30
2016,07,25,02,30,16.20
2016,07,25,02,31,16.20
2016,07,25,02,32,16.20
2016,07,25,02,33,16.20
2016,07,25,02,34,16.20
2016,07,25,02,35,16.20
2016,07,25,02,36,16.20
2016,07,25,02,37,16.20
2016,07,25,02,38,16.20
2016,07,25,02,39,16.20
2016,07,25,02,40,16.20
2016,07,25,02,41,16.20
2016,07,25,02,42,16.20
2016,07,25,02,43,16.20
2016,07,25,02,44,16.20
2016,07,25,02,45,16.20
2016,07,25,02,46,16.20
2016,07,25,02,47,16.20
2016,07,25,02,48,16.20
2016,07,25,02,49,16.20
2016,07,25,02,50,16.10
2016,07,25,02,51,16.10
2016,07,25,02,52,16.10
2016,07,25,02,53,16.10
2016,07,25,02,54,16.10
2016,07,25,02,55,16.10
2016,07,25,02,56,16.10
2016,07,25,02,57,16.10
2016,07,25,02,58,16.00
2016,07,25,02,59,15.90
2016,07,25,03,00,15.90
2016,07,25,03,01,15.90
2016,07,25,03,02,15.90
2016,07,25,03,03,15.90
2016,07,25,03,04,15.90
2016,07,25,03,05,15.80
2016,07,25,03,06,15.80
2016,07,25,03,07,15.80
2016,07,25,03,08,15.90
2016,07,25,03,09,15.90
2016,07,25,03,10,15.80
2016,07,25,03,11,15.80
2016,07,25,03,12,15.80
2016,07,25,03,13,15.80
2016,07,25,03,14,15.80
2016,07,25,03,15,15.80
2016,07,25,03,16,15.80
2016,07,25,03,17,15.80
2016,07,25,03,18,15.80
2016,07,25,03,19,15.80
2016,07,25,03,20,15.80
2016,07,25,03,21,15.80
2016,07,25,03,22,15.80
2016,07,25,03,23,15.80
2016,07,25,03,24,15.80
2016,07,25,03,25,15.80
2016,07,25,03,26,15.80
2016,07,25,03,27,15.80
2016,07,25,03,28,15.80
2016,07,25,03,29,15.80
2016,07,25,03,30,15.70
2016,07,25,03,31,15.70
2016,07,25,03,32,15.70
2016,07,25,03,33,15.70
2016,07,25,03,34,15.70
2016,07,25,03,35,15.70
2016,07,25,03,36,15.70
2016,07,25,03,37,15.70
2016,07,25,03,38,15.70
2016,07,25,03,39,15.70
2016,07,25,03,40,15.70
2016,07,25,03,41,15.60
2016,07,25,03,42,15.60
2016,07,25,03,43,15.60
2016,07,25,03,44,15.60
2016,07,25,03,45,15.60
2016,07,25,03,46,15.60
2016,07,25,03,47,15.60
2016,07,25,03,48,15.50
2016,07,25,03,49,15.50
2016,07,25,03,50,15.50
2016,07,25,03,51,15.50
2016,07,25,03,52,15.50
2016,07,25,03,53,15.50
2016,07,25,03,54,15.40
2016,07,25,03,55,15.40
2016,07,25,03,56,15.40
2016,07,25,03,57,15.40
2016,07,25,03,58,15.40
2016,07,25,03,59,15.40
2016,07,25,04,00,15.40
2016,07,25,04,01,15.40
2016,07,25,04,02,15.40
2016,07,25,04,03,15.40
2016,07,25,04,04,15.40
2016,07,25,04,05,15.40
2016,07,25,04,06,15.50
2016,07,25,04,07,15.50
2016,07,25,04,08,15.50
2016,07,25,04,09,15.50
2016,07,25,04,10,15.50
2016,07,25,04,11,15.50
2016,07,25,04,12,15.50
2016,07,25,04,13,15.40
2016,07,25,04,14,15.40
2016,07,25,04,15,15.40
2016,07,25,04,16,15.40
2016,07,25,04,17,15.40
2016,07,25,04,18,15.40
2016,07,25,04,19,15.40
2016,07,25,04,20,15.40
2016,07,25,04,21,15.40
2016,07,25,04,22,15.40
2016,07,25,04,23,15.40
2016,07,25,04,24,15.40
2016,07,25,04,25,15.40
2016,07,25,04,26,15.40
2016,07,25,04,27,15.40
2016,07,25,04,28,15.40
2016,07,25,04,29,15.40
2016,07,25,04,30,15.30
2016,07,25,04,31,15.30
2016,07,25,04,32,15.30
2016,07,25,04,33,15.30
2016,07,25,04,34,15.30
2016,07,25,04,35,15.30
2016,07,25,04,36,15.30
2016,07,25,04,37,15.30
2016,07,25,04,38,15.30
2016,07,25,04,39,15.30
2016,07,25,04,40,15.30
2016,07,25,04,41,15.30
2016,07,25,04,42,15.30
2016,07,25,04,43,15.30
2016,07,25,04,44,15.20
2016,07,25,04,45,15.20
2016,07,25,04,46,15.20
2016,07,25,04,47,15.10
2016,07,25,04,48,15.10
2016,07,25,04,49,15.10
2016,07,25,04,50,15.10
2016,07,25,04,51,15.10
2016,07,25,04,52,15.10
2016,07,25,04,53,15.10
2016,07,25,04,54,15.10
2016,07,25,04,55,15.10
2016,07,25,04,56,15.10
2016,07,25,04,57,15.10
2016,07,25,04,58,15.10
2016,07,25,04,59,15.10
2016,07,25,05,00,15.10
2016,07,25,05,01,15.10
2016,07,25,05,02,15.10
2016,07,25,05,03,15.10
2016,07,25,05,04,15.10
2016,07,25,05,05,15.10
2016,07,25,05,06,15.10
2016,07,25,05,07,15.10
2016,07,25,05,08,15.10
2016,07,25,05,09,15.10
2016,07,25,05,10,15.10
2016,07,25,05,11,15.10
2016,07,25,05,12,15.10
2016,07,25,05,13,15.10
2016,07,25,05,14,15.10
2016,07,25,05,15,15.10
2016,07,25,05,16,15.10
2016,07,25,05,17,15.10
2016,07,25,05,18,15.00
2016,07,25,05,19,15.00
2016,07,25,05,20,15.00
2016,07,25,05,21,15.00
2016,07,25,05,22,15.00
2016,07,25,05,23,15.00
2016,07,25,05,24,15.00
2016,07,25,05,25,15.00
2016,07,25,05,26,14.90
2016,07,25,05,27,14.90
2016,07,25,05,28,14.90
2016,07,25,05,29,14.90
2016,07,25,05,30,14.90
2016,07,25,05,31,14.90
2016,07,25,05,32,14.90
2016,07,25,05,33,14.90
2016,07,25,05,34,14.90
2016,07,25,05,35,14.90
2016,07,25,05,36,14.90
2016,07,25,05,37,14.90
2016,07,25,05,38,14.90
2016,07,25,05,39,14.90
2016,07,25,05,40,14.90
2016,07,25,05,41,14.90
2016,07,25,05,42,14.90
2016,07,25,05,43,14.90
2016,07,25,05,44,14.90
2016,07,25,05,45,14.90
2016,07,25,05,46,15.00
2016,07,25,05,47,15.00
2016,07,25,05,48,15.00
2016,07,25,05,49,15.00
2016,07,25,05,50,15.10
2016,07,25,05,51,15.10
2016,07,25,05,52,15.10
2016,07,25,05,53,15.10
2016,07,25,05,54,15.20
2016,07,25,05,55,15.20
2016,07,25,05,56,15.20
2016,07,25,05,57,15.20
2016,07,25,05,58,15.20
2016,07,25,05,59,15.20
2016,07,25,06,00,15.20
2016,07,25,06,01,15.20
2016,07,25,06,02,15.20
2016,07,25,06,03,15.20
2016,07,25,06,04,15.20
2016,07,25,06,05,15.30
2016,07,25,06,06,15.30
2016,07,25,06,07,15.30
2016,07,25,06,08,15.30
2016,07,25,06,09,15.30
2016,07,25,06,10,15.30
2016,07,25,06,11,15.30
2016,07,25,06,12,15.30
2016,07,25,06,13,15.30
2016,07,25,06,14,15.40
2016,07,25,06,15,15.40
2016,07,25,06,16,15.50
2016,07,25,06,17,15.50
2016,07,25,06,18,15.60
2016,07,25,06,19,15.60
2016,07,25,06,20,15.70
2016,07,25,06,21,15.70
2016,07,25,06,22,15.80
2016,07,25,06,23,15.80
2016,07,25,06,24,15.90
2016,07,25,06,25,16.00
2016,07,25,06,26,16.10
2016,07,25,06,27,16.10
2016,07,25,06,28,16.10
2016,07,25,06,29,16.20
2016,07,25,06,30,16.20
2016,07,25,06,31,16.30
2016,07,25,06,32,16.30
2016,07,25,06,33,16.30
2016,07,25,06,34,16.30
2016,07,25,06,35,16.30
2016,07,25,06,36,16.40
2016,07,25,06,37,16.40
2016,07,25,06,38,16.40
2016,07,25,06,39,16.40
2016,07,25,06,40,16.40
2016,07,25,06,41,16.40
2016,07,25,06,42,16.50
2016,07,25,06,43,16.60
2016,07,25,06,44,16.60
2016,07,25,06,45,16.70
2016,07,25,06,46,16.70
2016,07,25,06,47,16.70
2016,07,25,06,48,16.70
2016,07,25,06,49,16.70
2016,07,25,06,50,16.80
2016,07,25,06,51,16.80
2016,07,25,06,52,16.90
2016,07,25,06,53,16.90
2016,07,25,06,54,16.90
2016,07,25,06,55,17.00
2016,07,25,06,56,17.00
2016,07,25,06,57,17.00
2016,07,25,06,58,17.00
2016,07,25,06,59,17.00
2016,07,25,07,00,17.00
2016,07,25,07,01,17.00
2016,07,25,07,02,17.10
2016,07,25,07,03,17.10
2016,07,25,07,04,17.10
2016,07,25,07,05,17.20
2016,07,25,07,06,17.20
2016,07,25,07,07,17.20
2016,07,25,07,08,17.20
2016,07,25,07,09,17.30
2016,07,25,07,10,17.20
2016,07,25,07,11,17.20
2016,07,25,07,12,17.20
2016,07,25,07,13,17.20
2016,07,25,07,14,17.20
2016,07,25,07,15,17.20
2016,07,25,07,16,17.30
2016,07,25,07,17,17.30
2016,07,25,07,18,17.30
2016,07,25,07,19,17.30
2016,07,25,07,20,17.30
2016,07,25,07,21,17.30
2016,07,25,07,22,17.30
2016,07,25,07,23,17.30
2016,07,25,07,24,17.40
2016,07,25,07,25,17.40
2016,07,25,07,26,17.40
2016,07,25,07,27,17.40
2016,07,25,07,28,17.50
2016,07,25,07,29,17.50
2016,07,25,07,30,17.50
2016,07,25,07,31,17.50
2016,07,25,07,32,17.60
2016,07,25,07,33,17.60
2016,07,25,07,34,17.70
2016,07,25,07,35,17.70
2016,07,25,07,36,17.70
2016,07,25,07,37,17.80
2016,07,25,07,38,17.80
2016,07,25,07,39,17.90
2016,07,25,07,40,17.90
2016,07,25,07,41,17.90
2016,07,25,07,42,18.00
2016,07,25,07,43,18.10
2016,07,25,07,44,18.10
2016,07,25,07,45,18.10
2016,07,25,07,46,18.10
2016,07,25,07,47,18.10
2016,07,25,07,48,18.00
2016,07,25,07,49,17.90
2016,07,25,07,50,17.90
2016,07,25,07,51,17.90
2016,07,25,07,52,17.90
2016,07,25,07,53,18.00
2016,07,25,07,54,18.10
2016,07,25,07,55,18.10
2016,07,25,07,56,18.20
2016,07,25,07,57,18.20
2016,07,25,07,58,18.30
2016,07,25,07,59,18.40
2016,07,25,08,00,18.50
2016,07,25,08,01,18.60
2016,07,25,08,02,18.70
2016,07,25,08,03,18.80
2016,07,25,08,04,18.90
2016,07,25,08,05,19.00
2016,07,25,08,06,19.10
2016,07,25,08,07,19.10
2016,07,25,08,08,19.20
2016,07,25,08,09,19.30
2016,07,25,08,10,19.30
2016,07,25,08,11,19.40
2016,07,25,08,12,19.40
2016,07,25,08,13,19.50
2016,07,25,08,14,19.60
2016,07,25,08,15,19.60
2016,07,25,08,16,19.60
2016,07,25,08,17,19.70
2016,07,25,08,18,19.70
2016,07,25,08,19,19.70
2016,07,25,08,20,19.80
2016,07,25,08,21,19.80
2016,07,25,08,22,19.90
2016,07,25,08,23,19.90
2016,07,25,08,24,19.90
2016,07,25,08,25,20.00
2016,07,25,08,26,20.10
2016,07,25,08,27,20.10
2016,07,25,08,28,20.20
2016,07,25,08,29,20.20
2016,07,25,08,30,20.20
2016,07,25,08,31,20.20
2016,07,25,08,32,20.20
2016,07,25,08,33,20.20
2016,07,25,08,34,20.20
2016,07,25,08,35,20.20
2016,07,25,08,36,20.10
2016,07,25,08,37,20.00
2016,07,25,08,38,19.90
2016,07,25,08,39,19.80
2016,07,25,08,40,19.80
2016,07,25,08,41,19.70
2016,07,25,08,42,19.70
2016,07,25,08,43,19.60
2016,07,25,08,44,19.60
2016,07,25,08,45,19.50
2016,07,25,08,46,19.50
2016,07,25,08,47,19.40
2016,07,25,08,48,19.40
2016,07,25,08,49,19.40
2016,07,25,08,50,19.40
2016,07,25,08,51,19.50
2016,07,25,08,52,19.50
2016,07,25,08,53,19.60
2016,07,25,08,54,19.70
2016,07,25,08,55,19.80
2016,07,25,08,56,19.90
2016,07,25,08,57,20.10
2016,07,25,08,58,20.30
2016,07,25,08,59,20.40
2016,07,25,09,00,20.60
2016,07,25,09,01,20.80
2016,07,25,09,02,21.00
2016,07,25,09,03,21.10
2016,07,25,09,04,21.20
2016,07,25,09,05,21.40
2016,07,25,09,06,21.50
2016,07,25,09,07,21.60
2016,07,25,09,08,21.70
2016,07,25,09,09,21.80
2016,07,25,09,10,21.80
2016,07,25,09,11,21.80
2016,07,25,09,12,21.60
2016,07,25,09,13,21.50
2016,07,25,09,14,21.40
2016,07,25,09,15,21.30
2016,07,25,09,16,21.30
2016,07,25,09,17,21.20
2016,07,25,09,18,21.10
2016,07,25,09,19,21.10
2016,07,25,09,20,21.00
2016,07,25,09,21,21.00
2016,07,25,09,22,21.00
2016,07,25,09,23,21.00
2016,07,25,09,24,21.10
2016,07,25,09,25,21.10
2016,07,25,09,26,21.10
2016,07,25,09,27,21.10
2016,07,25,09,28,21.20
2016,07,25,09,29,21.20
2016,07,25,09,30,21.20
2016,07,25,09,31,21.20
2016,07,25,09,32,21.10
2016,07,25,09,33,21.10
2016,07,25,09,34,21.10
2016,07,25,09,35,21.10
2016,07,25,09,36,21.10
2016,07,25,09,37,21.10
2016,07,25,09,38,21.10
2016,07,25,09,39,21.00
2016,07,25,09,40,21.00
2016,07,25,09,41,21.00
2016,07,25,09,42,21.00
2016,07,25,09,43,21.00
2016,07,25,09,44,21.00
2016,07,25,09,45,20.90
2016,07,25,09,46,20.90
2016,07,25,09,47,20.90
2016,07,25,09,48,20.80
2016,07,25,09,49,20.80
2016,07,25,09,50,20.80
2016,07,25,09,51,20.80
2016,07,25,09,52,20.80
2016,07,25,09,53,20.80
2016,07,25,09,54,20.80
2016,07,25,09,55,20.80
2016,07,25,09,56,20.70
2016,07,25,09,57,20.70
2016,07,25,09,58,20.70
2016,07,25,09,59,20.70
2016,07,25,10,00,20.80
2016,07,25,10,01,20.80
2016,07,25,10,02,20.80
2016,07,25,10,03,20.90
2016,07,25,10,04,21.00
2016,07,25,10,05,21.10
2016,07,25,10,06,21.30
2016,07,25,10,07,21.30
2016,07,25,10,08,21.50
2016,07,25,10,09,21.60
2016,07,25,10,10,21.70
2016,07,25,10,11,21.80
2016,07,25,10,12,21.90
2016,07,25,10,13,22.00
2016,07,25,10,14,22.20
2016,07,25,10,15,22.30
2016,07,25,10,16,22.40
2016,07,25,10,17,22.50
2016,07,25,10,18,22.50
2016,07,25,10,19,22.60
2016,07,25,10,20,22.60
2016,07,25,10,21,22.60
2016,07,25,10,22,22.60
2016,07,25,10,23,22.70
2016,07,25,10,24,22.80
2016,07,25,10,25,22.90
2016,07,25,10,26,22.90
2016,07,25,10,27,23.00
2016,07,25,10,28,23.20
2016,07,25,10,29,23.20
2016,07,25,10,30,23.30
2016,07,25,10,31,23.30
2016,07,25,10,32,23.20
2016,07,25,10,33,23.20
2016,07,25,10,34,23.20
2016,07,25,10,35,23.10
2016,07,25,10,36,23.10
2016,07,25,10,37,23.10
2016,07,25,10,38,23.20
2016,07,25,10,39,23.40
2016,07,25,10,40,23.70
2016,07,25,10,41,23.70
2016,07,25,10,42,23.90
2016,07,25,10,43,24.00
2016,07,25,10,44,24.10
2016,07,25,10,45,24.10
2016,07,25,10,46,24.20
2016,07,25,10,47,24.30
2016,07,25,10,48,24.30
2016,07,25,10,49,24.30
2016,07,25,10,50,24.30
2016,07,25,10,51,24.30
2016,07,25,10,52,24.30
2016,07,25,10,53,24.40
2016,07,25,10,54,24.40
2016,07,25,10,55,24.40
2016,07,25,10,56,24.40
2016,07,25,10,57,24.50
2016,07,25,10,58,24.50
2016,07,25,10,59,24.60
2016,07,25,11,00,24.70
2016,07,25,11,01,24.70
2016,07,25,11,02,24.70
2016,07,25,11,03,24.70
2016,07,25,11,04,24.60
2016,07,25,11,05,24.60
2016,07,25,11,06,24.60
2016,07,25,11,07,24.60
2016,07,25,11,08,24.60
2016,07,25,11,09,24.50
2016,07,25,11,10,24.50
2016,07,25,11,11,24.30
2016,07,25,11,12,24.20
2016,07,25,11,13,24.20
2016,07,25,11,14,24.20
2016,07,25,11,15,24.10
2016,07,25,11,16,24.10
2016,07,25,11,17,24.10
2016,07,25,11,18,24.10
2016,07,25,11,19,24.10
2016,07,25,11,20,24.20
2016,07,25,11,21,24.20
2016,07,25,11,22,24.20
2016,07,25,11,23,24.30
2016,07,25,11,24,24.40
2016,07,25,11,25,24.50
2016,07,25,11,26,24.50
2016,07,25,11,27,24.60
2016,07,25,11,28,24.70
2016,07,25,11,29,24.70
2016,07,25,11,30,24.80
2016,07,25,11,31,24.80
2016,07,25,11,32,24.90
2016,07,25,11,33,25.00
2016,07,25,11,34,25.10
2016,07,25,11,35,25.10
2016,07,25,11,36,25.00
2016,07,25,11,37,24.90
2016,07,25,11,38,24.70
2016,07,25,11,39,24.60
2016,07,25,11,40,24.50
2016,07,25,11,41,24.40
2016,07,25,11,42,24.20
2016,07,25,11,43,24.00
2016,07,25,11,44,23.90
2016,07,25,11,45,23.90
2016,07,25,11,46,23.80
2016,07,25,11,47,23.80
2016,07,25,11,48,23.80
2016,07,25,11,49,23.80
2016,07,25,11,50,23.80
2016,07,25,11,51,23.80
2016,07,25,11,52,23.70
2016,07,25,11,53,23.60
2016,07,25,11,54,23.60
2016,07,25,11,55,23.60
2016,07,25,11,56,23.60
2016,07,25,11,57,23.70
2016,07,25,11,58,23.70
2016,07,25,11,59,23.70
2016,07,25,12,00,23.80
2016,07,25,12,01,23.80
2016,07,25,12,02,23.80
2016,07,25,12,03,23.80
2016,07,25,12,04,23.70
2016,07,25,12,05,23.50
2016,07,25,12,06,23.40
2016,07,25,12,07,23.30
2016,07,25,12,08,23.30
2016,07,25,12,09,23.30
2016,07,25,12,10,23.30
2016,07,25,12,11,23.30
2016,07,25,12,12,23.40
2016,07,25,12,13,23.40
2016,07,25,12,14,23.30
2016,07,25,12,15,23.30
2016,07,25,12,16,23.30
2016,07,25,12,17,23.40
2016,07,25,12,18,23.40
2016,07,25,12,19,23.50
2016,07,25,12,20,23.60
2016,07,25,12,21,23.70
2016,07,25,12,22,23.80
2016,07,25,12,23,23.90
2016,07,25,12,24,23.90
2016,07,25,12,25,23.90
2016,07,25,12,26,23.90
2016,07,25,12,27,24.10
2016,07,25,12,28,24.10
2016,07,25,12,29,24.10
2016,07,25,12,30,24.10
2016,07,25,12,31,24.30
2016,07,25,12,32,24.40
2016,07,25,12,33,24.50
2016,07,25,12,34,24.60
2016,07,25,12,35,24.70
2016,07,25,12,36,24.70
2016,07,25,12,37,24.50
2016,07,25,12,38,24.50
2016,07,25,12,39,24.50
2016,07,25,12,40,24.40
2016,07,25,12,41,24.30
2016,07,25,12,42,24.30
2016,07,25,12,43,24.20
2016,07,25,12,44,24.10
2016,07,25,12,45,24.10
2016,07,25,12,46,24.20
2016,07,25,12,47,24.30
2016,07,25,12,48,24.30
2016,07,25,12,49,24.10
2016,07,25,12,50,23.90
2016,07,25,12,51,23.70
2016,07,25,12,52,23.70
2016,07,25,12,53,23.50
2016,07,25,12,54,23.40
2016,07,25,12,55,23.40
2016,07,25,12,56,23.50
2016,07,25,12,57,23.60
2016,07,25,12,58,23.70
2016,07,25,12,59,23.80
2016,07,25,13,00,23.80
2016,07,25,13,01,23.80
2016,07,25,13,02,23.70
2016,07,25,13,03,23.70
2016,07,25,13,04,23.70
2016,07,25,13,05,23.70
2016,07,25,13,06,23.70
2016,07,25,13,07,23.70
2016,07,25,13,08,23.70
2016,07,25,13,09,23.70
2016,07,25,13,10,23.70
2016,07,25,13,11,23.80
2016,07,25,13,12,23.90
2016,07,25,13,13,23.90
2016,07,25,13,14,23.90
2016,07,25,13,15,24.10
2016,07,25,13,16,24.00
2016,07,25,13,17,23.90
2016,07,25,13,18,23.80
2016,07,25,13,19,23.80
2016,07,25,13,20,23.70
2016,07,25,13,21,23.60
2016,07,25,13,22,23.60
2016,07,25,13,23,23.60
2016,07,25,13,24,23.70
2016,07,25,13,25,23.70
2016,07,25,13,26,23.70
2016,07,25,13,27,23.50
2016,07,25,13,28,23.40
2016,07,25,13,29,23.20
2016,07,25,13,30,23.10
2016,07,25,13,31,23.10
2016,07,25,13,32,23.20
2016,07,25,13,33,23.30
2016,07,25,13,34,23.30
2016,07,25,13,35,23.40
2016,07,25,13,36,23.50
2016,07,25,13,37,23.50
2016,07,25,13,38,23.30
2016,07,25,13,39,23.20
2016,07,25,13,40,23.00
2016,07,25,13,41,22.80
2016,07,25,13,42,22.70
2016,07,25,13,43,22.60
2016,07,25,13,44,22.60
2016,07,25,13,45,22.60
2016,07,25,13,46,22.70
2016,07,25,13,47,22.70
2016,07,25,13,48,22.70
2016,07,25,13,49,22.60
2016,07,25,13,50,22.60
2016,07,25,13,51,22.70
2016,07,25,13,52,22.80
2016,07,25,13,53,22.90
2016,07,25,13,54,22.90
2016,07,25,13,55,22.90
2016,07,25,13,56,22.90
2016,07,25,13,57,22.90
2016,07,25,13,58,22.90
2016,07,25,13,59,22.90
2016,07,25,14,00,23.10
2016,07,25,14,01,23.20
2016,07,25,14,02,23.30
2016,07,25,14,03,23.40
2016,07,25,14,04,23.30
2016,07,25,14,05,23.30
2016,07,25,14,06,23.30
2016,07,25,14,07,23.30
2016,07,25,14,08,23.30
2016,07,25,14,09,23.20
2016,07,25,14,10,22.90
2016,07,25,14,11,22.70
2016,07,25,14,12,22.60
2016,07,25,14,13,22.50
2016,07,25,14,14,22.50
2016,07,25,14,15,22.40
2016,07,25,14,16,22.40
2016,07,25,14,17,22.50
2016,07,25,14,18,22.60
2016,07,25,14,19,22.40
2016,07,25,14,20,22.20
2016,07,25,14,21,22.20
2016,07,25,14,22,22.20
2016,07,25,14,23,22.20
2016,07,25,14,24,22.20
2016,07,25,14,25,22.30
2016,07,25,14,26,22.30
2016,07,25,14,27,22.50
2016,07,25,14,28,22.60
2016,07,25,14,29,22.60
2016,07,25,14,30,22.70
2016,07,25,14,31,22.80
2016,07,25,14,32,22.80
2016,07,25,14,33,22.70
2016,07,25,14,34,22.70
2016,07,25,14,35,22.70
2016,07,25,14,36,22.70
2016,07,25,14,37,22.60
2016,07,25,14,38,22.50
2016,07,25,14,39,22.50
2016,07,25,14,40,22.50
2016,07,25,14,41,22.50
2016,07,25,14,42,22.30
2016,07,25,14,43,22.30
2016,07,25,14,44,22.30
2016,07,25,14,45,22.20
2016,07,25,14,46,22.30
2016,07,25,14,47,22.30
2016,07,25,14,48,22.20
2016,07,25,14,49,22.10
2016,07,25,14,50,22.00
2016,07,25,14,51,22.10
2016,07,25,14,52,22.20
2016,07,25,14,53,22.20
2016,07,25,14,54,22.30
2016,07,25,14,55,22.30
2016,07,25,14,56,22.20
2016,07,25,14,57,22.20
2016,07,25,14,58,22.20
2016,07,25,14,59,22.30
2016,07,25,15,00,22.30
2016,07,25,15,01,22.20
2016,07,25,15,02,22.10
2016,07,25,15,03,22.00
2016,07,25,15,04,22.00
2016,07,25,15,05,21.70
2016,07,25,15,06,21.50
2016,07,25,15,07,21.40
2016,07,25,15,08,21.40
2016,07,25,15,09,21.40
2016,07,25,15,10,21.40
2016,07,25,15,11,21.40
2016,07,25,15,12,21.30
2016,07,25,15,13,21.30
2016,07,25,15,14,21.30
2016,07,25,15,15,21.40
2016,07,25,15,16,21.40
2016,07,25,15,17,21.40
2016,07,25,15,18,21.40
2016,07,25,15,19,21.30
2016,07,25,15,20,21.10
2016,07,25,15,21,20.90
2016,07,25,15,22,20.80
2016,07,25,15,23,20.70
2016,07,25,15,24,20.60
2016,07,25,15,25,20.60
2016,07,25,15,26,20.70
2016,07,25,15,27,20.70
2016,07,25,15,28,20.80
2016,07,25,15,29,20.90
2016,07,25,15,30,21.00
2016,07,25,15,31,21.10
2016,07,25,15,32,21.20
2016,07,25,15,33,21.30
2016,07,25,15,34,21.40
2016,07,25,15,35,21.50
2016,07,25,15,36,21.60
2016,07,25,15,37,21.60
2016,07,25,15,38,21.70
2016,07,25,15,39,21.90
2016,07,25,15,40,21.90
2016,07,25,15,41,22.00
2016,07,25,15,42,22.00
2016,07,25,15,43,22.00
2016,07,25,15,44,22.00
2016,07,25,15,45,22.10
2016,07,25,15,46,22.10
2016,07,25,15,47,22.20
2016,07,25,15,48,22.20
2016,07,25,15,49,22.30
2016,07,25,15,50,22.40
2016,07,25,15,51,22.50
2016,07,25,15,52,22.60
2016,07,25,15,53,22.70
2016,07,25,15,54,22.80
2016,07,25,15,55,22.90
2016,07,25,15,56,23.10
2016,07,25,15,57,23.20
2016,07,25,15,58,23.20
2016,07,25,15,59,23.30
2016,07,25,16,00,23.30
2016,07,25,16,01,23.30
2016,07,25,16,02,23.30
2016,07,25,16,03,23.30
2016,07,25,16,04,23.20
2016,07,25,16,05,23.20
2016,07,25,16,06,23.20
2016,07,25,16,07,23.20
2016,07,25,16,08,23.20
2016,07,25,16,09,23.20
2016,07,25,16,10,23.20
2016,07,25,16,11,23.30
2016,07,25,16,12,23.30
2016,07,25,16,13,23.40
2016,07,25,16,14,23.50
2016,07,25,16,15,23.60
2016,07,25,16,16,23.70
2016,07,25,16,17,23.80
2016,07,25,16,18,23.90
2016,07,25,16,19,24.00
2016,07,25,16,20,24.10
2016,07,25,16,21,24.20
2016,07,25,16,22,24.40
2016,07,25,16,23,24.50
2016,07,25,16,24,24.60
2016,07,25,16,25,24.80
2016,07,25,16,26,24.80
2016,07,25,16,27,24.90
2016,07,25,16,28,25.00
2016,07,25,16,29,25.00
2016,07,25,16,30,25.00
2016,07,25,16,31,25.00
2016,07,25,16,32,25.10
2016,07,25,16,33,25.20
2016,07,25,16,34,25.30
2016,07,25,16,35,25.30
2016,07,25,16,36,25.40
2016,07,25,16,37,25.50
2016,07,25,16,38,25.50
2016,07,25,16,39,25.50
2016,07,25,16,40,25.50
2016,07,25,16,41,25.50
2016,07,25,16,42,25.60
2016,07,25,16,43,25.70
2016,07,25,16,44,25.70
2016,07,25,16,45,25.70
2016,07,25,16,46,25.80
2016,07,25,16,47,25.80
2016,07,25,16,48,25.90
2016,07,25,16,49,25.90
2016,07,25,16,50,26.00
2016,07,25,16,51,26.10
2016,07,25,16,52,26.20
2016,07,25,16,53,26.20
2016,07,25,16,54,26.30
2016,07,25,16,55,26.50
2016,07,25,16,56,26.60
2016,07,25,16,57,26.60
2016,07,25,16,58,26.80
2016,07,25,16,59,26.80
2016,07,25,17,00,26.80
2016,07,25,17,01,26.80
2016,07,25,17,02,26.90
2016,07,25,17,03,26.90
2016,07,25,17,04,26.90
2016,07,25,17,05,26.90
2016,07,25,17,06,26.80
2016,07,25,17,07,26.80
2016,07,25,17,08,26.80
2016,07,25,17,09,26.80
2016,07,25,17,10,26.80
2016,07,25,17,11,26.80
2016,07,25,17,12,26.70
2016,07,25,17,13,26.70
2016,07,25,17,14,26.70
2016,07,25,17,15,26.70
2016,07,25,17,16,26.70
2016,07,25,17,17,26.70
2016,07,25,17,18,26.70
2016,07,25,17,19,26.70